timestamp,wind_dir_avg,wind_spd_avg,wind_spd_max_dir,wind_spd_gust,battery_voltage,lat,long
2024-01-22 00:04:00+00:00,31.0,7.42,32.0,8.03,12.33,47.59359,-54.27349
2024-01-22 00:14:00+00:00,31.0,7.47,32.0,8.29,12.25,47.59359,-54.27349
2024-01-22 00:24:00+00:00,34.0,8.16,29.0,9.57,12.25,47.59359,-54.27349
2024-01-22 00:34:00+00:00,38.0,10.06,38.0,11.06,12.25,47.59359,-54.27349
2024-01-22 00:44:00+00:00,39.0,8.73,51.0,10.55,12.25,47.59359,-54.27349
2024-01-22 00:54:00+00:00,41.0,9.49,46.0,11.29,12.25,47.59359,-54.27349
2024-01-22 01:04:00+00:00,34.0,8.82,33.0,10.06,12.25,47.59359,-54.27349
2024-01-22 01:14:00+00:00,31.0,8.16,33.0,8.78,12.25,47.59359,-54.27349
2024-01-22 01:24:00+00:00,30.0,7.75,31.0,8.82,12.25,47.59359,-54.27349
2024-01-22 01:34:00+00:00,25.0,7.57,21.0,8.2,12.25,47.59359,-54.27349
2024-01-22 01:44:00+00:00,24.0,6.86,22.0,7.68,12.25,47.59359,-54.27349
2024-01-22 01:54:00+00:00,13.0,6.28,13.0,7.21,12.25,47.59359,-54.27349
2024-01-22 02:04:00+00:00,355.0,5.21,1.0,6.08,12.25,47.59359,-54.27349
2024-01-22 02:14:00+00:00,347.0,6.24,343.0,7.15,12.17,47.59359,-54.27349
2024-01-22 02:24:00+00:00,356.0,6.81,2.0,7.69,12.17,47.59359,-54.27349
2024-01-22 02:34:00+00:00,4.0,7.39,359.0,8.07,12.17,47.59359,-54.27349
2024-01-22 02:44:00+00:00,11.0,6.99,9.0,7.91,12.17,47.59359,-54.27349
2024-01-22 02:54:00+00:00,11.0,6.96,16.0,7.94,12.17,47.59359,-54.27349
2024-01-22 03:04:00+00:00,14.0,7.84,13.0,9.06,12.17,47.59359,-54.27349
2024-01-22 03:14:00+00:00,19.0,7.61,16.0,8.91,12.17,47.59359,-54.27349
2024-01-22 03:24:00+00:00,23.0,8.93,18.0,10.5,12.17,47.59359,-54.27349
2024-01-22 03:34:00+00:00,20.0,8.88,19.0,10.53,12.17,47.59359,-54.27349
2024-01-22 03:44:00+00:00,24.0,8.26,21.0,9.57,12.17,47.59359,-54.27349
2024-01-22 03:54:00+00:00,13.0,8.26,7.0,9.15,12.17,47.59359,-54.27349
2024-01-22 04:04:00+00:00,14.0,8.22,16.0,9.64,12.17,47.59359,-54.27349
2024-01-22 04:14:01+00:00,14.0,8.32,19.0,9.88,12.17,47.59359,-54.27349
2024-01-22 04:24:01+00:00,5.0,8.94,3.0,10.88,12.17,47.59359,-54.27349
2024-01-22 04:34:01+00:00,9.0,8.62,13.0,9.96,12.17,47.59359,-54.27349
2024-01-22 04:44:01+00:00,6.0,7.73,16.0,8.8,12.17,47.59359,-54.27349
2024-01-22 04:54:01+00:00,8.0,7.89,16.0,9.4,12.17,47.59359,-54.27349
2024-01-22 05:04:01+00:00,9.0,7.81,5.0,9.39,12.17,47.59359,-54.27349
2024-01-22 05:14:00+00:00,15.0,9.02,18.0,10.64,12.17,47.59359,-54.27349
2024-01-22 05:24:00+00:00,12.0,8.8,10.0,10.74,12.17,47.59359,-54.27349
2024-01-22 05:34:00+00:00,17.0,8.9,16.0,10.08,12.17,47.59359,-54.27349
2024-01-22 05:44:00+00:00,20.0,9.29,17.0,10.67,12.17,47.59359,-54.27349
2024-01-22 05:54:00+00:00,19.0,9.3,20.0,10.73,12.17,47.59359,-54.27349
2024-01-22 06:04:00+00:00,18.0,10.38,22.0,12.15,12.17,47.59359,-54.27349
2024-01-22 06:14:00+00:00,20.0,9.33,25.0,10.35,12.17,47.59359,-54.27349
2024-01-22 06:24:00+00:00,18.0,9.86,20.0,11.65,12.17,47.59359,-54.27349
2024-01-22 06:34:00+00:00,13.0,8.91,15.0,10.31,12.17,47.59359,-54.27349
2024-01-22 06:44:00+00:00,12.0,8.55,13.0,9.83,12.17,47.59359,-54.27349
2024-01-22 06:54:00+00:00,5.0,8.38,13.0,9.42,12.17,47.59359,-54.27349
2024-01-22 07:04:00+00:00,358.0,9.16,0.0,10.83,12.17,47.59359,-54.27349
2024-01-22 07:14:00+00:00,3.0,8.49,359.0,9.84,12.17,47.59359,-54.27349
2024-01-22 07:24:00+00:00,9.0,8.27,11.0,9.86,12.17,47.59359,-54.27349
2024-01-22 07:34:00+00:00,9.0,7.72,17.0,8.79,12.17,47.59359,-54.27349
2024-01-22 07:44:00+00:00,10.0,7.62,10.0,9.48,12.17,47.59359,-54.27349
2024-01-22 07:54:00+00:00,4.0,8.35,4.0,10.16,12.17,47.59359,-54.27349
2024-01-22 08:04:00+00:00,1.0,7.81,1.0,8.97,12.17,47.59359,-54.27349
2024-01-22 08:14:00+00:00,2.0,9.41,4.0,10.49,12.09,47.59359,-54.27349
2024-01-22 08:24:00+00:00,3.0,8.68,0.0,10.01,12.09,47.59359,-54.27349
2024-01-22 08:34:00+00:00,3.0,6.86,3.0,8.43,12.09,47.59359,-54.27349
2024-01-22 08:44:00+00:00,354.0,7.52,352.0,8.78,12.09,47.59359,-54.27349
2024-01-22 08:54:00+00:00,345.0,7.23,333.0,8.58,12.09,47.59359,-54.27349
2024-01-22 09:04:00+00:00,341.0,7.25,326.0,8.84,12.09,47.59359,-54.27349
2024-01-22 09:14:00+00:00,326.0,5.56,329.0,6.79,12.09,47.59359,-54.27349
2024-01-22 09:24:00+00:00,319.0,5.58,310.0,7.03,12.09,47.59359,-54.27349
2024-01-22 09:34:00+00:00,327.0,7.24,317.0,8.3,12.09,47.59359,-54.27349
2024-01-22 09:44:00+00:00,330.0,7.89,324.0,9.32,12.09,47.59359,-54.27349
2024-01-22 09:54:00+00:00,326.0,7.51,327.0,8.19,12.09,47.59359,-54.27349
2024-01-22 10:04:00+00:00,328.0,8.74,329.0,9.76,12.09,47.59359,-54.27349
2024-01-22 10:14:00+00:00,330.0,8.88,327.0,9.87,12.09,47.59359,-54.27349
2024-01-22 10:24:00+00:00,329.0,8.83,324.0,10.49,12.09,47.59359,-54.27349
2024-01-22 10:34:00+00:00,327.0,8.71,328.0,9.61,12.09,47.59359,-54.27349
2024-01-22 10:44:00+00:00,327.0,8.62,330.0,9.54,12.09,47.59359,-54.27349
2024-01-22 10:54:00+00:00,322.0,7.89,325.0,9.14,12.09,47.59359,-54.27349
2024-01-22 11:04:00+00:00,317.0,7.36,318.0,8.68,12.09,47.59359,-54.27349
2024-01-22 11:14:00+00:00,316.0,6.94,314.0,8.24,12.09,47.59359,-54.27349
2024-01-22 11:24:00+00:00,305.0,6.72,302.0,8.43,12.09,47.59359,-54.27349
2024-01-22 11:34:00+00:00,301.0,7.79,304.0,9.07,12.09,47.59359,-54.27349
2024-01-22 11:44:00+00:00,295.0,7.24,301.0,8.62,12.09,47.59359,-54.27349
2024-01-22 11:54:00+00:00,293.0,8.22,286.0,11.29,12.09,47.59359,-54.27349
2024-01-22 12:04:00+00:00,294.0,7.7,296.0,8.52,12.09,47.59359,-54.27349
2024-01-22 12:14:00+00:00,295.0,7.95,292.0,9.52,12.33,47.59359,-54.27349
2024-01-22 12:24:00+00:00,297.0,7.52,303.0,8.66,12.33,47.59359,-54.27349
2024-01-22 12:34:00+00:00,300.0,8.83,288.0,12.83,12.33,47.59359,-54.27349
2024-01-22 12:44:00+00:00,298.0,8.27,284.0,13.3,12.33,47.59359,-54.27349
2024-01-22 12:54:00+00:00,306.0,8.37,310.0,9.69,12.33,47.59359,-54.27349
2024-01-22 13:04:00+00:00,295.0,9.33,288.0,13.46,12.33,47.59359,-54.27349
2024-01-22 13:14:00+00:00,297.0,9.52,285.0,13.38,13.21,47.59359,-54.27349
2024-01-22 13:24:00+00:00,285.0,6.75,288.0,7.59,13.21,47.59359,-54.27349
2024-01-22 13:34:00+00:00,302.0,7.22,302.0,8.46,13.21,47.59359,-54.27349
2024-01-22 13:44:00+00:00,302.0,6.96,301.0,8.22,13.21,47.59359,-54.27349
2024-01-22 13:54:00+00:00,302.0,9.4,290.0,13.54,13.21,47.59359,-54.27349
2024-01-22 14:04:00+00:00,300.0,8.79,297.0,11.39,13.21,47.59359,-54.27349
2024-01-22 14:14:00+00:00,312.0,6.36,308.0,7.37,13.6,47.59359,-54.27349
2024-01-22 14:24:00+00:00,306.0,7.63,300.0,9.0,13.6,47.59359,-54.27349
2024-01-22 14:34:00+00:00,294.0,10.81,289.0,14.61,13.6,47.59359,-54.27349
2024-01-22 14:44:00+00:00,304.0,7.52,312.0,9.0,13.6,47.59359,-54.27349
2024-01-22 14:54:00+00:00,288.0,10.64,284.0,14.07,13.6,47.59359,-54.27349
2024-01-22 15:04:00+00:00,305.0,9.48,300.0,15.4,13.6,47.59359,-54.27349
2024-01-22 15:14:00+00:00,297.0,7.48,298.0,8.5,13.6,47.59359,-54.27349
2024-01-22 15:24:00+00:00,289.0,7.71,286.0,8.7,13.6,47.59359,-54.27349
2024-01-22 15:34:00+00:00,285.0,12.24,290.0,14.95,13.6,47.59359,-54.27349
2024-01-22 15:44:00+00:00,286.0,12.53,286.0,14.85,13.6,47.59359,-54.27349
2024-01-22 15:54:00+00:00,288.0,8.98,284.0,13.87,13.6,47.59359,-54.27349
2024-01-22 16:04:00+00:00,276.0,12.29,278.0,14.25,13.6,47.59359,-54.27349
2024-01-22 16:14:00+00:00,272.0,10.74,269.0,13.9,13.6,47.59359,-54.27349
2024-01-22 16:24:00+00:00,278.0,13.03,278.0,14.62,13.6,47.59359,-54.27349
2024-01-22 16:34:00+00:00,276.0,7.45,280.0,8.61,13.6,47.59359,-54.27349
2024-01-22 16:44:00+00:00,274.0,10.76,270.0,12.25,13.6,47.59359,-54.27349
2024-01-22 16:54:00+00:00,273.0,12.23,276.0,13.84,13.6,47.59359,-54.27349
2024-01-22 17:04:00+00:00,273.0,11.64,274.0,13.48,13.6,47.59359,-54.27349
2024-01-22 17:14:00+00:00,276.0,11.41,278.0,13.78,13.37,47.59359,-54.27349
2024-01-22 17:24:00+00:00,271.0,12.06,274.0,13.34,13.37,47.59359,-54.27349
2024-01-22 17:34:00+00:00,272.0,13.04,279.0,14.58,13.37,47.59359,-54.27349
2024-01-22 17:44:00+00:00,265.0,12.93,265.0,13.82,13.37,47.59359,-54.27349
2024-01-22 17:54:00+00:00,275.0,11.43,277.0,14.39,13.37,47.59359,-54.27349
2024-01-22 18:04:00+00:00,285.0,10.21,283.0,14.06,13.37,47.59359,-54.27349
2024-01-22 18:14:00+00:00,282.0,13.45,284.0,14.91,14.32,47.59359,-54.27349
2024-01-22 18:24:00+00:00,288.0,10.46,285.0,13.56,14.32,47.59359,-54.27349
2024-01-22 18:34:00+00:00,287.0,8.73,279.0,13.13,14.32,47.59359,-54.27349
2024-01-22 18:44:00+00:00,287.0,7.33,287.0,12.99,14.32,47.59359,-54.27349
2024-01-22 18:54:00+00:00,281.0,9.01,275.0,13.21,14.32,47.59359,-54.27349
2024-01-22 19:04:00+00:00,273.0,12.3,277.0,14.27,14.32,47.59359,-54.27349
2024-01-22 19:14:00+00:00,275.0,9.85,276.0,13.8,14.24,47.59359,-54.27349
2024-01-22 19:24:00+00:00,272.0,11.32,275.0,14.49,14.24,47.59359,-54.27349
2024-01-22 19:34:00+00:00,279.0,10.62,274.0,13.91,14.24,47.59359,-54.27349
2024-01-22 19:44:00+00:00,278.0,13.21,282.0,14.39,14.24,47.59359,-54.27349
2024-01-22 19:54:00+00:00,282.0,9.25,277.0,13.02,14.24,47.59359,-54.27349
2024-01-22 20:04:00+00:00,280.0,10.99,281.0,14.59,14.24,47.59359,-54.27349
2024-01-22 20:14:00+00:00,279.0,7.65,276.0,8.7,12.97,47.59359,-54.27349
2024-01-22 20:24:00+00:00,281.0,8.67,278.0,12.76,12.97,47.59359,-54.27349
2024-01-22 20:34:00+00:00,268.0,7.61,263.0,8.69,12.97,47.59359,-54.27349
2024-01-22 20:44:00+00:00,273.0,8.3,275.0,12.86,12.97,47.59359,-54.27349
2024-01-22 20:54:00+00:00,277.0,5.76,286.0,6.91,12.97,47.59359,-54.27349
2024-01-22 21:04:00+00:00,274.0,6.36,277.0,7.56,12.97,47.59359,-54.27349
2024-01-22 21:14:00+00:00,270.0,7.29,276.0,7.94,12.41,47.59359,-54.27349
2024-01-22 21:24:00+00:00,259.0,7.73,257.0,8.77,12.41,47.59359,-54.27349
2024-01-22 21:34:00+00:00,261.0,7.17,253.0,8.22,12.41,47.59359,-54.27349
2024-01-22 21:44:00+00:00,262.0,7.93,264.0,9.45,12.41,47.59359,-54.27349
2024-01-22 21:54:00+00:00,271.0,6.84,271.0,7.94,12.41,47.59359,-54.27349
2024-01-22 22:04:00+00:00,262.0,7.28,263.0,7.95,12.41,47.59359,-54.27349
2024-01-22 22:14:00+00:00,274.0,7.74,274.0,12.73,12.33,47.59359,-54.27349
2024-01-22 22:24:00+00:00,273.0,7.95,278.0,9.62,12.33,47.59359,-54.27349
2024-01-22 22:34:00+00:00,265.0,6.97,258.0,7.62,12.33,47.59359,-54.27349
2024-01-22 22:44:00+00:00,282.0,7.36,278.0,8.89,12.33,47.59359,-54.27349
2024-01-22 22:54:00+00:00,276.0,7.28,281.0,8.64,12.33,47.59359,-54.27349
2024-01-22 23:04:00+00:00,281.0,8.97,281.0,13.82,12.33,47.59359,-54.27349
2024-01-22 23:14:00+00:00,260.0,6.99,267.0,9.0,12.25,47.59359,-54.27349
2024-01-22 23:24:00+00:00,246.0,4.8,245.0,5.66,12.25,47.59359,-54.27349
2024-01-22 23:34:00+00:00,264.0,4.45,256.0,5.4,12.25,47.59359,-54.27349
2024-01-22 23:44:00+00:00,284.0,7.41,280.0,9.19,12.25,47.59359,-54.27349
2024-01-22 23:54:00+00:00,276.0,5.66,281.0,7.11,12.25,47.59359,-54.27349
